KB4UTZ Weather Reports


time (UTC)temp
C
wind
direction
speed
KPH
gust
KPH
rain 1hr
cm
rain 24hr
cm
rain mn
cm
humidity
%
barometer
mb
20260509032046 11 338 1.6 3.2 0.00 0.00 0.00 93 1017.4
20260509031046 11 313 1.6 4.8 0.00 0.00 0.00 92 1017.5
20260509030046 11 331 1.6 4.8 0.00 0.00 0.00 92 1017.4
20260509025046 11 352 1.6 3.2 0.00 0.00 0.00 91 1017.5
20260509024046 11 340 0.0 3.2 0.00 0.00 0.00 91 1017.4
20260509023046 11 0.0 1.6 0.00 0.00 0.00 89 1017.4
20260509022046 11 304 0.0 3.2 0.00 0.00 0.00 89 1017.4
20260509021046 11 321 0.0 3.2 0.00 0.00 0.00 88 1017.4
20260509020047 12 0.0 1.6 0.00 0.00 0.00 87 1017.4
20260509015047 12 325 0.0 3.2 0.00 0.00 0.00 87 1017.3
20260509014047 12 0.0 1.6 0.00 0.00 0.00 87 1017.3
20260509013047 12 319 1.6 3.2 0.00 0.00 0.00 85 1017.1
20260509012106 13 0.0 1.6 0.00 0.00 0.00 84 1017.2
20260509011107 13 308 0.0 3.2 0.00 0.00 0.00 82 1017.0
20260509010046 13 338 1.6 3.2 0.00 0.00 0.00 80 1017.0
20260509005047 14 296 0.0 3.2 0.00 0.00 0.00 80 1017.2
20260509004047 14 289 1.6 3.2 0.00 0.00 0.00 77 1016.9
20260509003047 15 310 1.6 3.2 0.00 0.00 0.00 76 1017.1
20260509002046 15 314 0.0 3.2 0.00 0.00 0.00 75 1017.0
20260509001047 16 295 0.0 3.2 0.00 0.00 0.00 73 1016.8
20260509000046 16 265 0.0 3.2 0.00 0.00 0.00 71 1016.9
20260508235047 17 293 1.6 3.2 0.00 0.00 0.00 68 1016.9
20260508234047 17 357 0.0 1.6 0.00 0.00 0.00 67 1016.8
20260508233047 17 303 1.6 3.2 0.00 0.00 0.00 67 1016.9
20260508232046 17 340 3.2 3.2 0.00 0.00 0.00 64 1016.9
20260508231047 18 320 3.2 3.2 0.00 0.00 0.00 61 1016.9
20260508230046 18 325 3.2 4.8 0.00 0.00 0.00 60 1016.9
20260508225047 18 327 3.2 4.8 0.00 0.00 0.00 58 1016.8
20260508224047 20 333 4.8 4.8 0.00 0.00 0.00 56 1016.8
20260508223047 20 347 1.6 6.4 0.00 0.00 0.00 56 1016.9
20260508222046 20 329 3.2 4.8 0.00 0.00 0.00 51 1016.8
20260508221047 21 34 1.6 6.4 0.00 0.00 0.00 50 1016.9
20260508220106 21 350 1.6 6.4 0.00 0.00 0.00 44 1016.8
20260508215047 21 320 3.2 6.4 0.00 0.00 0.00 44 1016.9
20260508214047 21 225 3.2 8.0 0.00 0.00 0.00 44 1016.9
20260508213047 21 225 3.2 11.3 0.00 0.00 0.00 45 1017.0
20260508212046 21 117 4.8 8.0 0.00 0.00 0.00 46 1017.1
20260508211046 21 154 3.2 6.4 0.00 0.00 0.00 46 1016.8
20260508210046 21 198 3.2 6.4 0.00 0.00 0.00 47 1016.8
20260508205047 21 204 4.8 8.0 0.00 0.00 0.00 47 1016.9
20260508204107 21 208 3.2 9.7 0.00 0.00 0.00 49 1017.1
20260508203047 21 167 3.2 6.4 0.00 0.00 0.00 51 1017.0
20260508202047 21 215 1.6 4.8 0.00 0.00 0.00 52 1017.0
20260508201046 21 176 1.6 6.4 0.00 0.00 0.00 51 1017.0
20260508200046 21 252 4.8 6.4 0.00 0.00 0.00 50 1017.2
20260508195047 21 55 3.2 11.3 0.00 0.00 0.00 49 1017.4
20260508194047 21 284 3.2 11.3 0.00 0.00 0.00 49 1017.6
20260508193047 21 131 4.8 9.7 0.00 0.00 0.00 47 1018.1
20260508192107 21 146 3.2 9.7 0.00 0.00 0.00 48 1018.3
20260508191046 21 215 3.2 8.0 0.00 0.00 0.00 46 1018.5
20260508190046 21 199 3.2 6.4 0.00 0.00 0.00 45 1018.5
20260508185047 21 201 4.8 9.7 0.00 0.00 0.00 46 1018.6
20260508184107 21 117 3.2 4.8 0.00 0.00 0.00 44 1018.8
20260508183046 22 178 1.6 6.4 0.00 0.00 0.00 45 1018.8
20260508182107 21 239 3.2 8.0 0.00 0.00 0.00 45 1019.0
20260508181046 21 212 4.8 6.4 0.00 0.00 0.00 44 1019.0
20260508180046 21 228 3.2 6.4 0.00 0.00 0.00 45 1019.1
20260508175046 21 245 4.8 8.0 0.00 0.00 0.00 46 1019.1
20260508174106 21 247 3.2 9.7 0.00 0.00 0.00 45 1019.2
20260508173046 20 222 4.8 8.0 0.00 0.00 0.00 46 1019.6
20260508172046 20 262 3.2 11.3 0.00 0.00 0.00 46 1019.7
20260508171046 21 246 3.2 6.4 0.00 0.00 0.00 47 1020.0
20260508170045 20 201 3.2 6.4 0.00 0.00 0.00 45 1020.2
20260508165046 20 188 3.2 6.4 0.00 0.00 0.00 46 1020.0
20260508164045 18 282 6.4 16.1 0.00 0.00 0.00 45 1020.5
20260508163045 19 83 4.8 9.7 0.00 0.00 0.00 42 1020.8
20260508162045 20 201 4.8 8.0 0.00 0.00 0.00 46 1020.9
20260508161045 18 248 3.2 8.0 0.00 0.00 0.00 49 1021.0
20260508160046 18 145 4.8 9.7 0.00 0.00 0.00 47 1021.0
20260508155046 19 151 4.8 9.7 0.00 0.00 0.00 50 1021.0
20260508154047 19 213 3.2 4.8 0.00 0.00 0.00 47 1021.4
20260508153106 18 291 3.2 4.8 0.00 0.00 0.00 46 1021.4
20260508152046 18 153 3.2 4.8 0.00 0.00 0.00 48 1021.6
20260508151046 18 295 3.2 4.8 0.00 0.00 0.00 49 1021.6
20260508150046 18 132 3.2 6.4 0.00 0.00 0.00 49 1021.7
20260508145046 17 203 3.2 8.0 0.00 0.00 0.00 53 1021.6
20260508144046 17 262 3.2 4.8 0.00 0.00 0.00 56 1021.7
20260508143046 16 109 3.2 6.4 0.00 0.00 0.00 67 1021.8
20260508142046 16 124 1.6 4.8 0.00 0.00 0.00 68 1021.9
20260508141046 15 117 1.6 4.8 0.00 0.00 0.00 69 1022.0
20260508140046 14 160 1.6 4.8 0.00 0.00 0.00 72 1022.0
20260508135046 14 139 3.2 4.8 0.00 0.00 0.00 71 1022.1
20260508134106 13 154 1.6 12.9 0.00 0.00 0.00 76 1022.0
20260508133046 12 184 3.2 4.8 0.00 0.00 0.00 77 1022.2
20260508132046 12 34 1.6 4.8 0.00 0.00 0.00 79 1022.1
20260508131046 11 157 1.6 3.2 0.00 0.00 0.00 82 1022.1
20260508130045 11 154 1.6 4.8 0.00 0.00 0.00 83 1022.1
20260508125046 11 173 3.2 3.2 0.00 0.00 0.00 83 1022.2
20260508124046 10 193 3.2 4.8 0.00 0.00 0.00 85 1022.2
20260508123046 10 158 1.6 4.8 0.00 0.00 0.00 87 1022.1
20260508122046 10 164 3.2 6.4 0.00 0.00 0.00 89 1022.1
20260508121106 9 34 3.2 9.7 0.00 0.00 0.00 93 1022.0
20260508120046 8 187 1.6 4.8 0.00 0.00 0.00 98 1021.8
20260508115106 8 310 1.6 6.4 0.00 0.03 0.00 98 1021.6
20260508114046 8 0.0 3.2 0.00 0.03 0.00 98 1021.5
20260508113046 8 90 1.6 3.2 0.00 0.03 0.00 98 1021.3
20260508112046 8 100 0.0 3.2 0.00 0.03 0.00 98 1021.2
20260508111046 8 128 1.6 4.8 0.00 0.03 0.00 98 1021.1
20260508110127 8 73 3.2 6.4 0.00 0.03 0.00 98 1021.0
20260508105126 8 124 1.6 4.8 0.00 0.03 0.00 98 1020.8
20260508104046 8 48 1.6 4.8 0.00 0.03 0.00 98 1020.7
20260508103046 8 95 1.6 3.2 0.00 0.05 0.00 98 1020.6
20260508102046 8 48 0.0 3.2 0.00 0.05 0.00 98 1020.5
20260508101046 8 62 3.2 4.8 0.00 0.10 0.00 98 1020.3
20260508100045 8 48 1.6 3.2 0.00 0.13 0.00 98 1020.2
20260508095046 8 60 3.2 6.4 0.00 0.13 0.00 98 1020.2
20260508094106 8 67 1.6 3.2 0.00 0.15 0.00 98 1020.2
20260508093045 9 143 3.2 4.8 0.00 0.15 0.00 98 1020.2
20260508092045 9 112 1.6 4.8 0.00 0.15 0.00 98 1020.1
20260508091046 9 174 1.6 4.8 0.00 0.20 0.00 98 1020.1
20260508090045 9 41 4.8 8.0 0.00 0.23 0.00 98 1020.1
20260508085046 9 188 1.6 4.8 0.00 0.23 0.00 98 1020.1
20260508084046 9 34 3.2 6.4 0.00 0.25 0.00 98 1020.0
20260508083045 9 219 1.6 6.4 0.00 0.25 0.00 98 1019.9
20260508082046 10 34 1.6 4.8 0.00 0.25 0.00 98 1020.0
20260508081046 9 322 1.6 4.8 0.00 0.25 0.00 98 1019.9
20260508080045 9 282 1.6 4.8 0.00 0.25 0.00 98 1020.0
20260508075106 10 136 1.6 4.8 0.00 0.25 0.00 98 1020.2
20260508074046 9 10 4.8 8.0 0.00 0.25 0.00 98 1020.1
20260508073046 9 271 1.6 4.8 0.00 0.25 0.00 98 1020.0
20260508072046 9 329 3.2 6.4 0.00 0.25 0.00 98 1020.2
20260508071046 9 318 1.6 3.2 0.00 0.25 0.00 98 1020.4
20260508070045 10 313 1.6 3.2 0.00 0.25 0.00 98 1020.2
20260508065046 10 1 0.0 3.2 0.00 0.25 0.00 98 1020.3
20260508064046 10 318 0.0 3.2 0.00 0.25 0.00 98 1020.3
20260508063047 10 318 1.6 3.2 0.00 0.25 0.00 98 1020.2
20260508062046 10 213 0.0 3.2 0.00 0.25 0.00 98 1020.2
20260508061046 9 338 1.6 3.2 0.00 0.25 0.00 98 1020.2
20260508060045 9 324 0.0 1.6 0.00 0.25 0.00 98 1020.3
20260508055045 9 0.0 1.6 0.00 0.25 0.00 98 1020.3
20260508054045 9 314 0.0 1.6 0.00 0.25 0.00 98 1020.3
20260508053045 9 0.0 1.6 0.00 0.25 0.00 98 1020.4
20260508052045 9 269 0.0 3.2 0.00 0.25 0.00 98 1020.4
20260508051045 9 0.0 1.6 0.00 0.25 0.00 98 1020.5
20260508050106 9 0.0 1.6 0.00 0.25 0.00 98 1020.4
20260508045046 9 301 0.0 3.2 0.00 0.25 0.00 97 1020.2
20260508044046 9 334 1.6 3.2 0.00 0.25 0.00 97 1020.1
20260508043046 9 0.0 1.6 0.00 0.25 0.00 97 1020.1
20260508042045 9 335 1.6 3.2 0.00 0.25 0.00 97 1020.1
20260508041106 9 255 0.0 1.6 0.00 0.25 0.00 97 1020.0
20260508040105 9 0.0 3.2 0.00 0.25 0.25 97 1020.0
20260508035106 9 319 1.6 3.2 0.00 0.25 0.25 97 1019.9
20260508034046 10 0.0 1.6 0.00 0.25 0.25 97 1019.7
20260508033046 10 342 1.6 3.2 0.00 0.25 0.25 97 1019.8